Terug naar catalogus

DELTA 2 R/B

ActiefLEO
NORAD 20763·ROCKET BODY·🇺🇸 United States

Gelanceerd Aug 18, 1990 vanaf Cape Canaveral Space Force Station

Loading…

Volgende Passages (komende 24 uur)

TLE

VersSource: Space-Track

Epoch: Sep 14, 2026, 19:30 UTC

1 20763U 90074B   26257.81251840  .00004640  00000-0  35818-3 0  9991
2 20763  24.7571  80.7876 0326916  83.5002 280.2615 14.64377642891148

Volg DELTA 2 R/B in realtime met AllMySat

Download on the App Store